Location: Erdweis
(48.5167°N, 15.3500°E)
Time: 20:10:56
(UTC+00:00)

ISS - Visible Passes

Search period start: 29 November 2020 00:00
Search period end: 09 December 2020 00:00
Orbit: 418 x 420 km, 51.6° (Epoch: 30 November)

Date Brightness Start Highest point End Pass type
(mag) Time Alt. Az. Time Alt. Az. Time Alt. Az.
29 Nov -3.3 16:26:20 10° W 16:29:37 49° N 16:31:16 25° ENE visible
29 Nov -0.9 18:03:23 10° WNW 18:04:13 16° WNW 18:04:13 16° WNW visible
30 Nov -3.4 15:38:41 10° W 15:42:00 56° NNW 15:45:21 10° ENE visible
30 Nov -3.0 17:15:49 10° WNW 17:18:35 45° NNW 17:18:35 45° NNW visible
01 Dec -3.3 16:28:13 10° WNW 16:31:30 48° N 16:32:57 27° ENE visible
01 Dec -0.8 18:05:06 10° WNW 18:05:55 16° WNW 18:05:55 16° WNW visible
02 Dec -3.3 15:40:35 10° WNW 15:43:51 47° N 15:47:08 10° ENE visible
02 Dec -3.3 17:17:32 10° WNW 17:20:20 57° NW 17:20:20 57° NW visible
03 Dec -3.7 16:29:58 10° WNW 16:33:18 61° NNE 16:34:50 29° E visible
03 Dec -0.8 18:06:52 10° WNW 18:07:48 17° W 18:07:48 17° W visible
04 Dec -3.5 15:42:21 10° WNW 15:45:39 52° N 15:48:58 10° E visible
04 Dec -3.2 17:19:13 10° WNW 17:22:22 57° SW 17:22:22 57° SW visible
05 Dec -3.8 16:31:35 10° WNW 16:34:58 82° SSW 16:37:04 21° ESE visible
05 Dec -0.6 18:09:01 10° W 18:10:03 15° WSW 18:10:03 15° WSW visible
06 Dec -3.8 15:43:59 10° WNW 15:47:22 76° NNE 15:50:44 10° ESE visible
06 Dec -1.8 17:21:03 10° W 17:23:56 26° SW 17:24:56 23° S visible
07 Dec -2.4 16:33:16 10° WNW 16:36:26 39° SSW 16:39:37 10° SE visible
08 Dec -3.1 15:45:34 10° WNW 15:48:54 58° SSW 15:52:12 10° SE visible
08 Dec -0.6 17:23:50 10° WSW 17:25:07 12° SW 17:26:23 10° SSW visible
